This is the latest recevied weather packets stored in our database for station/object W8CEN. If no packets are shown the sender has not sent any weather packets the latest 10 day(s).
| Time | Temp. | Humidity | Pressure | Rain* | Wind** | Luminosity | Snow |
|---|---|---|---|---|---|---|---|
| 1777981642 | 15.56° C | 72% | 983.4 hPa | 0 mm | - | 68 W/m² | - |
| 1777981338 | 15.56° C | 71% | 983.3 hPa | 0 mm | - | 61 W/m² | - |
| 1777981035 | 15.56° C | 71% | 983.3 hPa | 0 mm | - | 55 W/m² | - |
| 1777980732 | 15.56° C | 71% | 983.1 hPa | 0 mm | - | 53 W/m² | - |
| 1777980428 | 15.56° C | 71% | 983 hPa | 0 mm | - | 45 W/m² | - |
| 1777980126 | 15.56° C | 71% | 982.7 hPa | 0 mm | - | 32 W/m² | - |
| 1777979825 | 15.56° C | 71% | 982.5 hPa | 0 mm | - | 29 W/m² | - |
| 1777979521 | 15.56° C | 71% | 982.4 hPa | 0 mm | - | 20 W/m² | - |
| 1777979218 | 15.56° C | 70% | 982.5 hPa | 0 mm | - | 12 W/m² | - |
| 1777978915 | 15.56° C | 70% | 982.4 hPa | 0 mm | - | 9 W/m² | - |
| 1777978612 | 15.56° C | 70% | 982.2 hPa | 0 mm | - | 8 W/m² | - |
| 1777978307 | 15.56° C | 70% | 982.3 hPa | 0 mm | - | 7 W/m² | - |
| 1777978004 | 16.11° C | 69% | 982.1 hPa | 0 mm | - | 5 W/m² | - |
| 1777977702 | 16.11° C | 69% | 982.1 hPa | 0 mm | - | 4 W/m² | - |
| 1777977398 | 16.11° C | 69% | 982 hPa | 0 mm | - | 3 W/m² | - |
| 1777977096 | 16.11° C | 69% | 981.8 hPa | 0 mm | - | 2 W/m² | - |
| 1777976793 | 16.11° C | 69% | 981.7 hPa | 0 mm | - | 1 W/m² | - |
| 1777976491 | 16.11° C | 69% | 981.9 hPa | 0 mm | - | 1 W/m² | - |
| 1777976190 | 16.11° C | 69% | 981.7 hPa | 0 mm | - | 0 W/m² | - |
| 1777975885 | 16.11° C | 69% | 981.8 hPa | 0 mm | - | 0 W/m² | - |
| 1777975581 | 16.67° C | 68% | 981.8 hPa | 0 mm | - | 0 W/m² | - |
| 1777975279 | 16.67° C | 66% | 981.6 hPa | 0 mm | - | 0 W/m² | - |
| 1777974975 | 17.22° C | 64% | 981.7 hPa | 0 mm | - | 0 W/m² | - |
| 1777974672 | 17.22° C | 62% | 981.7 hPa | 0 mm | - | 0 W/m² | - |
| 1777974368 | 17.22° C | 61% | 981.7 hPa | 0 mm | - | 0 W/m² | - |
* Rain latest hour (hover to see other rain measurements)
** Current wind speed in m/s (hover to see current wind gust speed)